User: anonymous   Login
Location: Unspecified
(0.0000°N, 0.0000°E)
Time: 16:24:38
(UTC+01:00)
Language:

JASON 2 - Orbit

View from above orbital plane
View from above orbital plane
View from above satellite
View from above satellite

Ground track
Ground track

The orbit data is extracted from the following two-line orbital elements,

1 33105U 08032A   18346.55513260 -.00000045  00000-0  67762-4 0  9996
2 33105  66.0429  59.6908 0007834 269.5067 223.0513 12.87628065490548
Epoch (UTC): 12 December 2018 13:19:23
Eccentricity: 0.0007834
inclination: 66.0429°
perigee height: 1305 km
apogee height: 1317 km
right ascension of ascending node: 59.6908°
argument of perigee: 269.5067°
revolutions per day: 12.87628065
mean anomaly at epoch: 223.0513°
orbit number at epoch: 49054

The dashed part of the orbit path shows where the satellite is in the earth's shadow,  

DLR